map of YZW home
YZW - Airport
Location
City:  Teslin, Yukon, Canada
ICAO:CYZW
IATA:YZW

Details
Type:Airport (Airfield)
Latitude:6010'22"N (60.172779)
Longitude:13244'34"W (-132.742777)
Datum:WGS 1984
Elevation:2313 ft (705 m)
Variation:19.61E (WMM2015v2 magnetic declination)
-0.24 annual change
Runways:1
Longest:5000 × 100 ft (1524 × 30.5 m)

Weather
METAR:CYZW 040100Z 11003KT 30SM FEW210 M31/M35 A3026 RMK CI2 CLIMAT -28.9/-37.6/0.0/44040/LAST STFD OBS/NXT 041700Z SLP357
TAF:CYZW 031838Z 0319/0401 VRB03KT P6SM SKC
RMK NXT FCST WILL BE ISSUED AT 041845Z

Related Locations
Nearby:
Farthest:YWKS: 10485 mi / 16875 km
Wilkins Runway (Casey), Upper Peterson Glacier, AQ

Find:

   beyond  
but within

Other Information
Maps:
NOTAMs:
Links:
Sources:

  
  • flag of Canada
  • flag of Yukon
  

Airport Diagram

Airport diagram for YZW

Airport diagram PDF

Sectional Chart

Flight Planning
at skyvector.com

Satellite Image

Google Maps Satellite view

 

Copyright © 2004-2019 Karl L. Swartz. All rights reserved.
The Great Circle Mapper name and logo are trademarks of the Great Circle Mapper.
All other trademarks mentioned herein belong to their respective owners.
Please see credits for attibutions and further copyright information.

  Follow gcmap on Facebook Follow gcmap on Twitter GCmap on LinkedIn

hCard Microformat

Geo Microformat